Location: Izdebno
(52.6670°N, 16.2170°E)
Time: 18:49:36
(UTC+02:00)

SR - Pass Details

Date: 05 March 2024
Orbit: 577 x 862 km, 66.7° (Epoch: 20 April)

Event Time Altitude Azimuth Distance (km) Brightness Sun altitude
Rises 20:16:09 0° 320° (NW) 3,260 ? -23.7°
Reaches altitude 10° 20:18:43 10° 325° (NW) 2,283 ? -24.0°
Enters shadow 20:23:43 53° 38° (NE) 874 ? -24.7°
